TimeCST,TemperatureF,Dew PointF,Humidity,Sea Level PressureIn,VisibilityMPH,Wind Direction,Wind SpeedMPH,Gust SpeedMPH,PrecipitationIn,Events,Conditions,WindDirDegrees,DateUTC
12:53 AM,12.0,10.9,95,30.01,10.0,Calm,Calm,-,N/A,,Clear,0,2013-02-26 06:53:00
1:53 AM,12.9,10.0,88,29.99,10.0,WNW,11.5,-,N/A,,Clear,290,2013-02-26 07:53:00
2:53 AM,14.0,10.9,88,29.97,9.0,West,5.8,-,N/A,,Clear,280,2013-02-26 08:53:00
3:53 AM,9.0,6.1,88,29.96,8.0,South,3.5,-,N/A,,Clear,190,2013-02-26 09:53:00
4:53 AM,10.0,6.1,84,29.95,10.0,West,10.4,-,N/A,,Clear,270,2013-02-26 10:53:00
5:53 AM,8.1,5.0,87,29.95,10.0,West,4.6,-,N/A,,Clear,280,2013-02-26 11:53:00
6:53 AM,9.0,3.9,80,29.96,10.0,WSW,6.9,-,N/A,,Clear,250,2013-02-26 12:53:00
7:53 AM,5.0,1.9,87,29.97,8.0,West,5.8,-,N/A,,Clear,270,2013-02-26 13:53:00
8:53 AM,9.0,5.0,84,29.99,8.0,West,12.7,-,N/A,,Clear,270,2013-02-26 14:53:00
9:53 AM,12.9,8.1,81,29.98,9.0,West,4.6,-,N/A,,Clear,280,2013-02-26 15:53:00
10:53 AM,17.1,12.0,81,29.97,9.0,WNW,3.5,-,N/A,,Clear,290,2013-02-26 16:53:00
11:53 AM,23.0,15.1,72,29.95,10.0,WNW,4.6,-,N/A,,Clear,290,2013-02-26 17:53:00
12:53 PM,27.0,19.0,72,29.94,10.0,WNW,4.6,-,N/A,,Clear,290,2013-02-26 18:53:00
1:53 PM,30.0,21.9,72,29.93,10.0,NW,4.6,-,N/A,,Clear,310,2013-02-26 19:53:00
2:53 PM,32.0,21.9,66,29.91,10.0,NW,6.9,-,N/A,,Clear,320,2013-02-26 20:53:00
3:53 PM,33.1,23.0,66,29.93,10.0,NW,3.5,-,N/A,,Clear,320,2013-02-26 21:53:00
4:53 PM,34.0,21.9,61,29.94,10.0,NW,4.6,-,N/A,,Clear,320,2013-02-26 22:53:00
5:53 PM,32.0,21.9,66,29.96,10.0,East,3.5,-,N/A,,Clear,80,2013-02-26 23:53:00
6:53 PM,30.9,21.0,67,30.00,10.0,Calm,Calm,-,N/A,,Clear,0,2013-02-27 00:53:00
7:53 PM,28.0,21.0,75,30.03,9.0,Calm,Calm,-,N/A,,Clear,0,2013-02-27 01:53:00
8:53 PM,23.0,19.0,85,30.05,9.0,WNW,9.2,-,N/A,,Clear,290,2013-02-27 02:53:00
9:53 PM,23.0,19.0,85,30.06,10.0,WNW,8.1,-,N/A,,Partly Cloudy,290,2013-02-27 03:53:00
10:53 PM,23.0,18.0,81,30.07,8.0,North,-9999.0,-,N/A,,Unknown,0,2013-02-27 04:53:00
11:53 PM,21.9,18.0,85,30.07,10.0,WNW,10.4,-,N/A,,Clear,300,2013-02-27 05:53:00